EW5807 Weather Reports


Display with metric or nautical units.
time (UTC)temp
F
wind
direction
speed
MPH
gust
MPH
rain 1hr
in
rain 24hr
in
rain mn
in
humidity
%
barometer
mb
20260504050025 49 219 3.0 6.0 0.00 0.00 0.00 34 1005.2
20260504044600 54 221 3.0 8.0 0.00 0.00 0.00 28 1005.0
20260504043050 56 105 0.0 1.0 0.00 0.00 0.00 26 1004.5
20260504041547 55 72 0.0 2.0 0.00 0.00 0.00 27 1004.4
20260504040047 56 72 0.0 2.0 0.00 0.00 0.00 27 1004.4
20260504034553 55 64 0.0 1.0 0.00 0.00 0.00 28 1004.2
20260504033053 55 64 0.0 1.0 0.00 0.00 0.00 29 1004.1
20260504031512 57 68 0.0 4.0 0.00 0.00 0.00 28 1003.9
20260504030009 58 77 0.0 1.0 0.00 0.00 0.00 27 1003.8
20260504024505 60 47 0.0 0.0 0.00 0.00 0.00 28 1003.8
20260504023059 62 338 0.0 0.0 0.00 0.00 0.00 27 1003.8
20260504021555 64 338 0.0 1.0 0.00 0.00 0.00 21 1003.7
20260504020052 65 338 0.0 0.0 0.00 0.00 0.00 21 1003.9
20260504014549 66 338 0.0 0.0 0.00 0.00 0.00 21 1003.9
20260504013049 66 338 0.0 0.0 0.00 0.00 0.00 20 1004.1
20260504011543 67 271 0.0 0.0 0.00 0.00 0.00 20 1004.2
20260504010048 68 271 0.0 0.0 0.00 0.00 0.00 17 1004.5
20260504004534 68 271 0.0 1.0 0.00 0.00 0.00 15 1004.5
20260504003033 69 241 0.0 1.0 0.00 0.00 0.00 16 1004.7
20260504001532 69 149 0.0 3.0 0.00 0.00 0.00 14 1004.7
20260504000031 69 221 4.0 6.0 0.00 0.00 0.00 15 1004.8
20260503234602 70 273 4.0 9.0 0.00 0.00 0.00 16 1004.8
20260503233059 70 226 3.0 8.0 0.00 0.00 0.00 14 1005.0
20260503231555 71 219 4.0 9.0 0.00 0.00 0.00 15 1005.0
20260503230055 71 359 2.0 7.0 0.00 0.00 0.00 14 1005.1
20260503224553 71 327 1.0 7.0 0.00 0.00 0.00 14 1005.2
20260503223052 72 337 2.0 6.0 0.00 0.00 0.00 14 1005.4
20260503221546 72 101 2.0 7.0 0.00 0.00 0.00 15 1005.6
20260503220103 71 129 0.0 9.0 0.00 0.00 0.00 15 1005.8
20260503214545 71 53 2.0 8.0 0.00 0.00 0.00 15 1006.1
20260503213042 72 256 1.0 6.0 0.00 0.00 0.00 16 1006.3
20260503211550 69 356 0.0 8.0 0.00 0.00 0.00 15 1006.6
20260503210034 72 44 5.0 10.0 0.00 0.00 0.00 15 1006.6
20260503204533 72 75 4.0 9.0 0.00 0.00 0.00 16 1006.7
20260503203034 72 307 5.0 9.0 0.00 0.00 0.00 16 1006.9
20260503201523 73 58 4.0 8.0 0.00 0.00 0.00 16 1007.2
20260503200005 71 17 3.0 9.0 0.00 0.00 0.00 17 1007.6
20260503194504 70 356 2.0 4.0 0.00 0.00 0.00 17 1007.8
20260503193121 69 8 0.0 5.0 0.00 0.00 0.00 17 1008.0